Tracking 23726 objects as of 16-Oct-2021
HD Live streaming from Space Station
objects crossing your sky now

BREEZE-M DEB

Track BREEZE-M DEB now!
10-day predictions


NORAD ID: 37198
Int'l Code: 2008-011C
Perigee: 562.8 km
Apogee: 26,297.0 km
Inclination: 49.1 °
Period: 462.2 minutes
Semi major axis: 19800 km
RCS: 4.9345 m2 (large)
Launch date: March 14, 2008
Source: Commonwealth of Independent States (former USSR) (CIS)
Launch site: TYURATAM MISSILE AND SPACE COMPLEX (TTMTR)

Note: This is SATELLITE DEBRIS
aabbcc
Your satellite tracking list
Your tracking list is empty




NASA's NSSDC Master Catalog

Two Line Element Set (TLE):
1 37198U 08011C   21288.60283370 -.00000110  00000-0 -98928-3 0  9991
2 37198  49.0802 101.4510 6498237 185.2889 161.3228  3.11583969125045
Source of the keplerian elements: AFSPC